Back to catalog

COSMOS 249

AliveMilitaryUNKNOWN
NORAD 3504·PAYLOAD·🇷🇺 Russia

Launched Oct 20, 1968 from Baikonur Cosmodrome

Loading…

Next Passes (next 24 hours)

TLE

FreshSource: Space-Track

Epoch: Sep 14, 2026, 10:16 UTC

1 03504U 68091A   26257.42792906 -.00000070  00000-0  15529-4 0  9991
2 03504  62.3420  48.1157 1015350  39.5500 327.5275 12.97206844732066

Track COSMOS 249 in real time with AllMySat

Download on the App Store